Monticello, KY

11:24 AM EDT on June 26, 2017 (GMT -0400)
Wayne County

Weather History for KEKQ - May, 2013

Change the Weather History Date:

Saturday, May 11, 2013

  Actual Average Record
Temperature  
Mean Temperature 57 °F -  
Max Temperature 64 °F 75 °F 88 °F (2015)
Min Temperature 50 °F 49 °F 33 °F (1966)
Degree Days  
Heating Degree Days 8    
Growing Degree Days 7 (Base 50)    
Moisture  
Dew Point 59 °F    
Average Humidity 97    
Maximum Humidity 100    
Minimum Humidity 77    
Precipitation  
Precipitation 0.08 in - - ()
Sea Level Pressure  
Sea Level Pressure 29.97 in    
Wind  
Wind Speed 7 mph (West)    
Max Wind Speed 14 mph    
Max Gust Speed 21 mph    
Visibility 5 miles    
Events Fog , Rain    
Averages and records for this station are not official NWS values.
T = Trace of Precipitation, MM = Missing Value Source: NWS Daily Summary

Daily Weather History Graph

Daily Weather History Graph

Search for Another Location

Airport or City:

Trip Planner

Search our weather history database for the weather conditions in past years. The results will help you decide how hot, cold, wet, or windy it might be!

Date:

Astronomy

May. 11, 2013 Rise Set
Actual Time 5:34 AM CDT 7:37 PM CDT
Civil Twilight 5:06 AM CDT 8:05 PM CDT
Nautical Twilight 4:31 AM CDT 8:40 PM CDT
Astronomical Twilight 3:53 AM CDT 9:18 PM CDT
Moon 6:42 AM CDT (5/11) 9:15 PM CDT (5/11)
Length of Visible Light 14h 59m
Length of Day
14h 02m
Waxing Crescent, 3% of the Moon is Illuminated
May 11
Waxing Crescent
May 17
First Quarter
May 24
Full
May 31
Last Quarter
Jun 8
New

Hourly Weather History & Observations

Time (CDT) Temp. Dew Point Humidity Pressure Visibility Wind Dir Wind Speed Gust Speed Precip Events Conditions
12:18 AM 64.4 °F 62.6 °F 94% 29.96 in 5.0 mi SSW 9.2 mph - 0.00 in Rain Light Rain
12:27 AM 62.6 °F 62.6 °F 100% 29.95 in 5.0 mi SSW 8.1 mph - 0.00 in Rain Light Rain
12:56 AM 63.9 °F 61.9 °F 93% 29.95 in 10.0 mi SW 9.2 mph - 0.00 in   Overcast
1:27 AM 62.6 °F 62.6 °F 100% 29.94 in 2.5 mi SW 11.5 mph 20.7 mph 0.01 in Rain Rain
1:35 AM 62.6 °F 62.6 °F 100% 29.94 in 1.5 mi SW 9.2 mph - 0.03 in Rain Light Rain
1:39 AM 62.6 °F 62.6 °F 100% 29.94 in 3.0 mi SW 11.5 mph - 0.03 in Rain Light Rain
1:44 AM 62.6 °F 62.6 °F 100% 29.93 in 6.0 mi SW 9.2 mph - 0.03 in Rain Light Rain
1:56 AM 61.9 °F 61.9 °F 100% 29.94 in 4.0 mi SW 9.2 mph - 0.03 in Rain Light Rain
2:38 AM 62.6 °F 62.6 °F 100% 29.94 in 10.0 mi WSW 5.8 mph - 0.02 in   Overcast
2:56 AM 61.0 °F 59.9 °F 96% 29.94 in 8.0 mi North 6.9 mph - 0.02 in Rain Rain
3:56 AM 59.9 °F 59.9 °F 100% 29.94 in 5.0 mi Calm Calm - 0.02 in Rain Light Rain
4:56 AM 59.9 °F 59.9 °F 100% 29.94 in 7.0 mi Calm Calm - 0.01 in Rain Light Rain
5:56 AM 59.9 °F 59.9 °F 100% 29.94 in 10.0 mi Calm Calm - 0.00 in   Overcast
6:43 AM 60.8 °F 60.8 °F 100% 29.94 in 1.8 mi NNW 3.5 mph - 0.00 in Rain Light Rain
6:46 AM 60.8 °F 60.8 °F 100% 29.94 in 1.2 mi NNW 3.5 mph - 0.00 in   Overcast
6:56 AM 59.9 °F 59.9 °F 100% 29.95 in 0.8 mi NNW 3.5 mph - 0.00 in Rain Light Rain
7:19 AM 60.8 °F 60.8 °F 100% 29.95 in 1.0 mi Calm Calm - 0.00 in Rain Light Rain
7:25 AM 60.8 °F 60.8 °F 100% 29.95 in 1.5 mi WNW 3.5 mph - 0.00 in   Overcast
7:31 AM 60.8 °F 60.8 °F 100% 29.96 in 3.0 mi WNW 3.5 mph - 0.00 in   Overcast
7:36 AM 60.8 °F 60.8 °F 100% 29.96 in 1.8 mi WNW 4.6 mph - 0.00 in   Overcast
7:56 AM 59.9 °F 59.9 °F 100% 29.97 in 1.8 mi West 6.9 mph - 0.00 in   Overcast
8:02 AM 60.8 °F 60.8 °F 100% 29.96 in 3.0 mi WNW 6.9 mph - N/A   Overcast
8:16 AM 60.8 °F 60.8 °F 100% 29.96 in 3.0 mi WNW 6.9 mph - N/A   Overcast
8:24 AM 60.8 °F 60.8 °F 100% 29.96 in 2.5 mi WNW 10.4 mph - N/A   Overcast
8:41 AM 60.8 °F 60.8 °F 100% 29.96 in 3.0 mi WNW 9.2 mph - N/A   Overcast
8:56 AM 61.0 °F 61.0 °F 100% 29.96 in 3.0 mi West 8.1 mph - N/A   Overcast
9:15 AM 62.6 °F 62.6 °F 100% 29.96 in 4.0 mi WNW 6.9 mph - N/A   Overcast
9:24 AM 62.6 °F 62.6 °F 100% 29.96 in 4.0 mi West 6.9 mph - N/A   Mostly Cloudy
9:56 AM 61.9 °F 61.9 °F 100% 29.97 in 3.0 mi WNW 8.1 mph - N/A   Overcast
10:34 AM 62.6 °F 62.6 °F 100% 29.97 in 2.5 mi West 6.9 mph - N/A   Overcast
10:43 AM 62.6 °F 62.6 °F 100% 29.97 in 6.0 mi WSW 8.1 mph - N/A   Mostly Cloudy
10:56 AM 63.9 °F 63.0 °F 97% 29.97 in 9.0 mi West 8.1 mph - N/A   Mostly Cloudy
11:03 AM 64.4 °F 62.6 °F 94% 29.96 in 9.0 mi West 6.9 mph - N/A   Mostly Cloudy
11:36 AM 62.6 °F 62.6 °F 100% 29.97 in 7.0 mi WNW 10.4 mph - N/A   Overcast
11:56 AM 61.9 °F 61.9 °F 100% 29.97 in 5.0 mi West 9.2 mph - N/A   Overcast
12:06 PM 60.8 °F 60.8 °F 100% 29.97 in 2.5 mi WNW 10.4 mph - N/A   Overcast
12:27 PM 60.8 °F 60.8 °F 100% 29.97 in 4.0 mi West 9.2 mph - N/A   Overcast
12:42 PM 60.8 °F 60.8 °F 100% 29.97 in 3.0 mi WNW 9.2 mph - N/A   Overcast
12:56 PM 59.9 °F 59.9 °F 100% 29.98 in 2.5 mi WNW 9.2 mph - 0.00 in Rain Light Rain
1:20 PM 60.8 °F 60.8 °F 100% 29.98 in 4.0 mi West 8.1 mph - 0.00 in   Overcast
1:27 PM 60.8 °F 59.0 °F 94% 29.97 in 4.0 mi West 8.1 mph - 0.00 in   Overcast
1:49 PM 62.6 °F 59.0 °F 88% 29.97 in 7.0 mi West 8.1 mph - 0.00 in   Overcast
1:56 PM 61.9 °F 59.0 °F 90% 29.98 in 7.0 mi West 6.9 mph - 0.00 in   Mostly Cloudy
2:56 PM 61.9 °F 56.8 °F 84% 29.99 in 10.0 mi West 10.4 mph - N/A   Overcast
3:12 PM 62.6 °F 57.2 °F 82% 29.98 in 10.0 mi West 10.4 mph - N/A   Mostly Cloudy
3:22 PM 60.8 °F 57.2 °F 88% 29.98 in 7.0 mi NW 13.8 mph - N/A   Mostly Cloudy
3:49 PM 59.0 °F 57.2 °F 94% 29.99 in 6.0 mi NW 13.8 mph - N/A   Mostly Cloudy
3:56 PM 59.0 °F 55.9 °F 90% 30.00 in 6.0 mi WNW 11.5 mph 18.4 mph N/A   Mostly Cloudy
4:13 PM 59.0 °F 55.4 °F 88% 29.99 in 7.0 mi WNW 10.4 mph - N/A   Overcast
4:56 PM 59.9 °F 55.9 °F 87% 29.99 in 9.0 mi WNW 9.2 mph - N/A   Overcast
5:44 PM 60.8 °F 53.6 °F 77% 29.99 in 10.0 mi WNW 9.2 mph - N/A   Overcast
5:56 PM 59.9 °F 54.9 °F 83% 30.00 in 10.0 mi West 6.9 mph - N/A   Overcast
6:56 PM 59.0 °F 54.9 °F 86% 29.99 in 10.0 mi WSW 5.8 mph - N/A   Scattered Clouds
7:56 PM 54.0 °F 52.9 °F 96% 30.00 in 7.0 mi SSW 4.6 mph - N/A   Clear
8:56 PM 50.0 °F 50.0 °F 100% 30.03 in 5.0 mi Calm Calm - N/A   Clear
9:56 PM 50.9 °F 50.9 °F 100% 30.03 in 4.0 mi Calm Calm - N/A   Scattered Clouds
10:23 PM 53.6 °F 53.6 °F 100% 30.02 in 1.8 mi Calm Calm - N/A   Overcast
10:25 PM 53.6 °F 53.6 °F 100% 30.02 in 1.0 mi Calm Calm - N/A   Overcast
10:28 PM 53.6 °F 53.6 °F 100% 30.03 in 0.5 mi Calm Calm - N/A Fog Fog
10:38 PM 53.6 °F 53.6 °F 100% 30.03 in 1.0 mi WSW 3.5 mph - N/A   Overcast
10:40 PM 53.6 °F 53.6 °F 100% 30.03 in 1.5 mi WSW 3.5 mph - 0.00 in Rain Light Rain
10:43 PM 53.6 °F 53.6 °F 100% 30.03 in 4.0 mi WSW 5.8 mph - 0.00 in Rain Light Rain
10:56 PM 54.9 °F 54.9 °F 100% 30.04 in 5.0 mi West 8.1 mph - 0.00 in Rain Light Rain
11:56 PM 54.9 °F 54.9 °F 100% 30.06 in 9.0 mi West 9.2 mph - 0.00 in   Overcast